Location: �clusier
(49.9361°N, 2.7869°E)
Time: 06:22:45
(UTC+00:00)

Cosmos 2016 Rocket - Pass Details

Date: 29 October 2021
Orbit: 947 x 1000 km, 83.0° (Epoch: 05 December)

Event Time Altitude Azimuth Distance (km) Brightness Sun altitude
Rises 19:30:56 0° 195° (SSW) 3,646 7.0 -29.4°
Reaches altitude 10° 19:33:27 10° 198° (SSW) 2,695 6.3 -29.8°
Maximum altitude 19:39:35 69° 282° (WNW) 1,023 4.1 -30.7°
Drops below altitude 10° 19:45:43 10° 6° (N) 2,686 6.4 -31.7°
Sets 19:48:14 0° 9° (N) 3,633 7.1 -32.0°
